Location: Basse Occidentale du Courleau
(48.3833°N, 4.8333°W)
Time: 09:34:08
(UTC+00:00)

SL-8 Rocket - Pass Details

Date: 05 July 2020
Orbit: 957 x 990 km, 82.9° (Epoch: 07 August)

Event Time Altitude Azimuth Distance (km) Brightness Sun altitude
Exits shadow 23:30:59 29° 162° (SSE) 1,683 4.7 -18.0°
Maximum altitude 23:34:08 61° 93° (E) 1,087 4.1 -18.1°
Drops below altitude 10° 23:40:11 10° 15° (NNE) 2,702 7.3 -18.3°
Sets 23:42:43 0° 12° (NNE) 3,651 8.3 -18.4°
